US 13 @ Nanticoke River, Seaford DE USA current weather conditions

sailwx.info

Wind from 320 at 2 knots gusting 8

Air temperature -4.2° C
Dewpoint -11.4° C

Last reported at 2019-Nov-13 11:55 UTC.
Time now 2019-Nov-13 12:18 UTC

Location: N 38°39' W 075°36'.
View on Google Maps.

See reports from other nearby stations

  
Tides and Currents Weather Stations Pressure Air Temp Water Temp Dewpoint Dewpoint Depression Visibility Wind Speed Wind Dir Waves Ship Positions
date/time (UTC)wind fromknots sea level pressurealtimeterstation pressurevisibilityair tempwater tempwave heightnotes
2019-Nov-13 11:55 320 2 gusting 8 -4.2
2019-Nov-13 11:50 339 3 gusting 8 -4.0
2019-Nov-13 11:45 343 3 gusting 6 -4.2
2019-Nov-13 11:40 349 3 gusting 5 -4.2
2019-Nov-13 11:35 354 2 gusting 4 -4.2
2019-Nov-13 11:30 357 2 gusting 4 -4.2
2019-Nov-13 11:25 355 2 gusting 4 -4.3
2019-Nov-13 11:20 343 2 gusting 3 -4.4
2019-Nov-13 11:15 355 2 gusting 3 -4.4
2019-Nov-13 11:10 340 1 gusting 3 -4.3
2019-Nov-13 11:05 337 1 gusting 5 -4.3
2019-Nov-13 11:00 337 2 gusting 5 -4.0
2019-Nov-13 10:55 337 3 gusting 6 -4.0
2019-Nov-13 10:50 355 3 gusting 6 -3.9
2019-Nov-13 10:45 345 3 gusting 6 -3.9
2019-Nov-13 10:40 354 3 gusting 6 -3.9
2019-Nov-13 10:35 349 2 gusting 5 -3.9
2019-Nov-13 10:30 343 2 gusting 5 -3.9
2019-Nov-13 10:25 331 2 gusting 5 -3.9
2019-Nov-13 10:20 339 3 gusting 4 -3.9
2019-Nov-13 10:15 349 3 gusting 5 -3.9
2019-Nov-13 10:10 345 3 gusting 5 -4.0
2019-Nov-13 10:05 346 1 gusting 3 -4.0
2019-Nov-13 10:00 343 1 gusting 4 -4.0
2019-Nov-13 09:55 340 2 gusting 4 -4.0
2019-Nov-13 09:50 325 1 gusting 3 -4.0
2019-Nov-13 09:45 313 1 gusting 3 -3.9
2019-Nov-13 09:40 310 1 gusting 4 -3.9
2019-Nov-13 09:35 345 2 gusting 4 -3.9
2019-Nov-13 09:30 348 2 gusting 5 -3.8
2019-Nov-13 09:25 346 3 gusting 5 -3.8
2019-Nov-13 09:20 338 3 gusting 5 -3.6
2019-Nov-13 09:15 351 3 gusting 5 -3.5
2019-Nov-13 09:10 001 2 gusting 5 -3.4
2019-Nov-13 09:05 356 3 gusting 6 -3.4
2019-Nov-13 09:00 357 4 gusting 6 -3.4
2019-Nov-13 08:55 352 3 gusting 5 -3.5
2019-Nov-13 08:50 346 3 gusting 5 -3.4
2019-Nov-13 08:45 336 2 gusting 4 -3.4
2019-Nov-13 08:40 350 2 gusting 5 -3.4
2019-Nov-13 08:35 343 3 gusting 5 -3.4
2019-Nov-13 08:30 344 3 gusting 5 -3.4
2019-Nov-13 08:25 344 3 gusting 5 -3.4
2019-Nov-13 08:20 351 3 gusting 5 -3.3
2019-Nov-13 08:15 351 2 gusting 6 -3.3
2019-Nov-13 08:10 350 2 gusting 6 -3.1
2019-Nov-13 08:05 354 3 gusting 6 -3.1
2019-Nov-13 08:00 352 4 gusting 6 -3.0
2019-Nov-13 07:55 345 3 gusting 7 -2.9
2019-Nov-13 07:50 347 4 gusting 7 -2.9
2019-Nov-13 07:45 358 3 gusting 7 -2.8
2019-Nov-13 07:40 354 4 gusting 7 -2.6
2019-Nov-13 07:35 005 4 gusting 8 -2.4
2019-Nov-13 07:30 003 5 gusting 8 -2.4
2019-Nov-13 07:25 008 5 gusting 8 -2.4
2019-Nov-13 07:20 014 6 gusting 10 -2.4
2019-Nov-13 07:15 018 4 gusting 12 -2.3
2019-Nov-13 07:10 359 6 gusting 12 -2.3
2019-Nov-13 07:05 007 6 gusting 10 -2.1
2019-Nov-13 07:00 005 6 gusting 10 -2.0
2019-Nov-13 06:55 012 6 gusting 10 -2.1
2019-Nov-13 06:50 013 5 gusting 10 -2.0
2019-Nov-13 06:45 008 7 gusting 12 -2.0
2019-Nov-13 06:40 004 6 gusting 12 -1.9
2019-Nov-13 06:35 005 6 gusting 13 -1.9
2019-Nov-13 06:30 003 7 gusting 13 -1.9
2019-Nov-13 06:25 358 7 gusting 12 -1.8
2019-Nov-13 06:20 011 7 gusting 12 -1.8
2019-Nov-13 06:15 003 6 gusting 13 -1.6
2019-Nov-13 06:10 352 6 gusting 13 -1.6
2019-Nov-13 06:05 002 5 gusting 10 -1.5
2019-Nov-13 06:00 005 6 gusting 10 -1.4
2019-Nov-13 05:55 020 5 gusting 9 -1.4
2019-Nov-13 05:50 007 6 gusting 10 -1.4
2019-Nov-13 05:45 007 6 gusting 11 -1.4
2019-Nov-13 05:40 014 7 gusting 11 -1.4
2019-Nov-13 05:35 020 6 gusting 13 -1.3
2019-Nov-13 05:30 011 7 gusting 14 -1.1
2019-Nov-13 05:25 008 8 gusting 14 -1.0
2019-Nov-13 05:20 009 5 gusting 13 -1.0
2019-Nov-13 05:15 010 8 gusting 13 -0.9
2019-Nov-13 05:10 008 6 gusting 15 -0.9
2019-Nov-13 05:05 358 10 gusting 17 -0.9
2019-Nov-13 05:00 013 8 gusting 17 -0.8
2019-Nov-13 04:55 011 8 gusting 15 -0.8
2019-Nov-13 04:50 006 7 gusting 17 -0.7
2019-Nov-13 04:45 010 11 gusting 17 -0.5
2019-Nov-13 04:40 012 8 gusting 16 -0.5
2019-Nov-13 04:35 004 7 gusting 16 -0.4
2019-Nov-13 04:30 012 7 gusting 16 -0.4
2019-Nov-13 04:25 018 9 gusting 18 -0.4
2019-Nov-13 04:20 016 9 gusting 18 -0.3
2019-Nov-13 04:15 002 8 gusting 18 -0.1
2019-Nov-13 04:10 015 10 gusting 16 -0.0
2019-Nov-13 04:05 009 9 gusting 17 -0.0
2019-Nov-13 04:00 013 9 gusting 17 0.1
2019-Nov-13 03:55 008 9 gusting 17 0.1
2019-Nov-13 03:50 014 11 gusting 17 0.2
2019-Nov-13 03:45 002 8 gusting 17 0.3
2019-Nov-13 03:40 025 7 gusting 14 0.3
2019-Nov-13 03:35 016 9 gusting 18 0.5
2019-Nov-13 03:30 008 9 gusting 18 0.6
2019-Nov-13 03:25 006 8 gusting 17 0.7
2019-Nov-13 03:20 006 8 gusting 15 0.7
2019-Nov-13 03:15 018 9 gusting 18 0.7
2019-Nov-13 03:10 008 9 gusting 18 0.7
2019-Nov-13 03:05 012 7 gusting 11 0.6
2019-Nov-13 03:00 016 7 gusting 14 0.6
2019-Nov-13 02:55 017 9 gusting 14 0.6
2019-Nov-13 02:50 011 8 gusting 15 0.7
2019-Nov-13 02:45 011 8 gusting 16 0.7
2019-Nov-13 02:40 011 10 gusting 18 0.8
2019-Nov-13 02:35 004 12 gusting 18 1.0
2019-Nov-13 02:30 006 10 gusting 17 1.1
2019-Nov-13 02:25 018 9 gusting 17 1.1
2019-Nov-13 02:20 358 10 gusting 14 1.1
2019-Nov-13 02:15 360 8 gusting 12 1.1
2019-Nov-13 02:10 353 7 gusting 13 1.1
2019-Nov-13 02:05 003 7 gusting 13 1.2
2019-Nov-13 02:00 005 6 gusting 15 1.2
2019-Nov-13 01:55 009 8 gusting 15 1.2
2019-Nov-13 01:50 015 8 gusting 15 1.4
2019-Nov-13 01:45 358 9 gusting 15 1.4
2019-Nov-13 01:40 017 6 gusting 13 1.4
2019-Nov-13 01:35 018 8 gusting 13 1.5
2019-Nov-13 01:30 018 8 gusting 13 1.5
2019-Nov-13 01:25 019 7 gusting 13 1.6
2019-Nov-13 01:20 019 8 gusting 15 1.6
2019-Nov-13 01:15 017 7 gusting 16 1.6
2019-Nov-13 01:10 015 10 gusting 18 1.6
2019-Nov-13 01:05 017 9 gusting 18 1.6
2019-Nov-13 01:00 014 12 gusting 22 1.6
2019-Nov-13 00:55 016 10 gusting 22 1.5
2019-Nov-13 00:50 024 6 gusting 12 1.5
2019-Nov-13 00:45 017 6 gusting 12 1.5
2019-Nov-13 00:40 016 8 gusting 12 1.4
2019-Nov-13 00:35 021 6 gusting 11 1.5
2019-Nov-13 00:30 018 6 gusting 11 1.5
2019-Nov-13 00:25 017 7 gusting 10 1.6
2019-Nov-13 00:20 026 5 gusting 9 1.5
2019-Nov-13 00:15 035 5 gusting 9 1.6
2019-Nov-13 00:10 034 4 gusting 8 1.6
2019-Nov-13 00:05 026 5 gusting 8 1.6
2019-Nov-13 00:00 020 4 gusting 8 1.6
2019-Nov-12 23:55 028 4 gusting 8 1.7
2019-Nov-12 23:50 026 3 gusting 6 1.7
2019-Nov-12 23:45 028 3 gusting 6 1.9
2019-Nov-12 23:40 024 4 gusting 7 1.9
2019-Nov-12 23:35 018 4 gusting 7 2.0
2019-Nov-12 23:30 022 4 gusting 6 2.0
2019-Nov-12 23:25 032 3 gusting 7 2.1
2019-Nov-12 23:20 019 4 gusting 8 2.1
2019-Nov-12 23:15 012 4 gusting 8 2.1
2019-Nov-12 23:10 024 4 gusting 8 2.1
2019-Nov-12 23:05 022 5 gusting 10 2.2
2019-Nov-12 23:00 008 6 gusting 11 2.4
2019-Nov-12 22:55 360 5 gusting 11 2.4
2019-Nov-12 22:50 014 4 gusting 11 2.4
2019-Nov-12 22:45 018 6 gusting 11 2.4
2019-Nov-12 22:40 025 7 gusting 10 2.4
2019-Nov-12 22:35 025 5 gusting 10 2.5
2019-Nov-12 22:30 023 6 gusting 12 2.6
2019-Nov-12 22:25 021 6 gusting 12 2.7
2019-Nov-12 22:20 011 6 gusting 11 2.9
2019-Nov-12 22:15 003 7 gusting 13 2.7
2019-Nov-12 22:10 355 8 gusting 14 2.9
2019-Nov-12 22:05 005 8 gusting 15 3.0
2019-Nov-12 22:00 016 7 gusting 15 3.1
2019-Nov-12 21:55 015 5 gusting 9 3.1
2019-Nov-12 21:50 003 5 gusting 9 3.0
2019-Nov-12 21:45 358 6 gusting 11 2.9
2019-Nov-12 21:40 355 6 gusting 11 2.9
2019-Nov-12 21:35 350 6 gusting 12 2.9
2019-Nov-12 21:30 350 6 gusting 12 3.0
2019-Nov-12 21:25 355 4 gusting 11 3.0
2019-Nov-12 21:20 353 8 gusting 12 2.9
2019-Nov-12 21:15 349 7 gusting 12 3.0
2019-Nov-12 21:10 356 7 gusting 12 3.0
2019-Nov-12 21:05 353 5 gusting 12 2.7
2019-Nov-12 21:00 350 7 gusting 12 2.7
2019-Nov-12 20:55 352 8 gusting 14 2.7
2019-Nov-12 20:50 349 5 gusting 14 2.6
2019-Nov-12 20:45 350 7 gusting 13 2.6
2019-Nov-12 20:40 352 4 gusting 16 2.6
2019-Nov-12 20:35 001 9 gusting 17 2.7
2019-Nov-12 20:30 359 10 gusting 21 2.5
2019-Nov-12 20:25 336 8 gusting 21 2.1
2019-Nov-12 20:20 346 12 gusting 20 2.1
2019-Nov-12 20:15 338 7 gusting 15 1.6
2019-Nov-12 20:10 344 9 gusting 15 1.4
2019-Nov-12 20:05 356 3 gusting 10 1.1
2019-Nov-12 20:00 352 5 gusting 11 1.0
2019-Nov-12 19:55 340 6 gusting 11 0.8
2019-Nov-12 19:50 330 3 gusting 7 0.8
2019-Nov-12 19:45 335 4 gusting 7 0.8
2019-Nov-12 19:40 345 3 gusting 8 0.8
2019-Nov-12 19:35 338 4 gusting 8 0.8
2019-Nov-12 19:30 344 3 gusting 17 0.8
2019-Nov-12 19:25 341 6 gusting 17 0.8
2019-Nov-12 19:20 330 7 gusting 14 0.8
2019-Nov-12 19:15 341 7 gusting 15 0.8
2019-Nov-12 19:10 347 7 gusting 15 0.8
2019-Nov-12 19:05 341 5 gusting 13 0.8
2019-Nov-12 19:00 343 4 gusting 10 0.8
2019-Nov-12 18:55 345 3 gusting 9 0.8
2019-Nov-12 18:50 331 5 gusting 11 0.8
2019-Nov-12 18:45 345 6 gusting 13 1.0
2019-Nov-12 18:40 342 5 gusting 13 0.8
2019-Nov-12 18:35 350 5 gusting 10 0.8
2019-Nov-12 18:30 346 5 gusting 9 0.8
2019-Nov-12 18:25 333 6 gusting 10 1.0
2019-Nov-12 18:20 340 5 gusting 15 1.1
2019-Nov-12 18:15 354 6 gusting 15 1.4
2019-Nov-12 18:10 347 8 gusting 16 1.6
2019-Nov-12 18:05 345 9 gusting 16 1.9
2019-Nov-12 18:00 360 7 gusting 15 2.2
2019-Nov-12 17:55 347 5 gusting 15 2.4
2019-Nov-12 17:50 349 6 gusting 16 2.5
2019-Nov-12 17:45 343 6 gusting 16 2.6
2019-Nov-12 17:40 341 6 gusting 16 2.7
2019-Nov-12 17:35 354 10 gusting 20 2.9
2019-Nov-12 17:30 342 10 gusting 21 3.0
2019-Nov-12 17:25 342 12 gusting 21 3.1
2019-Nov-12 17:20 341 9 gusting 18 3.5
2019-Nov-12 17:15 340 9 gusting 18 3.9
2019-Nov-12 17:10 340 7 gusting 19 4.1
2019-Nov-12 17:05 346 11 gusting 19 4.2
2019-Nov-12 17:00 349 7 gusting 15 4.6
2019-Nov-12 16:55 343 6 gusting 16 4.7
2019-Nov-12 16:50 345 7 gusting 19 5.0
2019-Nov-12 16:45 345 9 gusting 19 5.0
2019-Nov-12 16:40 333 9 gusting 16 5.2
2019-Nov-12 16:35 320 6 gusting 17 5.3
2019-Nov-12 16:30 331 6 gusting 18 5.5
2019-Nov-12 16:25 335 7 gusting 18 5.6
2019-Nov-12 16:20 329 6 gusting 13 5.6
2019-Nov-12 16:15 328 6 gusting 15 5.6
2019-Nov-12 16:10 330 8 gusting 15 5.7
2019-Nov-12 16:05 316 8 gusting 18 5.8
2019-Nov-12 16:00 336 10 gusting 22 6.0
2019-Nov-12 15:55 329 10 gusting 22 6.2
2019-Nov-12 15:50 337 9 gusting 19 6.6
2019-Nov-12 15:45 339 8 gusting 14 7.0
2019-Nov-12 15:40 333 7 gusting 13 7.1
2019-Nov-12 15:35 326 7 gusting 14 7.2
2019-Nov-12 15:30 338 7 gusting 17 7.3
2019-Nov-12 15:25 318 6 gusting 17 7.3
2019-Nov-12 15:20 324 6 gusting 12 7.5
2019-Nov-12 15:15 315 5 gusting 18 7.6
2019-Nov-12 15:10 310 9 gusting 18 7.6
2019-Nov-12 15:05 321 6 gusting 15 7.7
2019-Nov-12 15:00 319 9 gusting 15 7.8
2019-Nov-12 14:55 313 8 gusting 20 8.2
2019-Nov-12 14:50 310 11 gusting 20 8.7
2019-Nov-12 14:45 300 5 gusting 12 9.1
2019-Nov-12 14:40 325 5 gusting 12 9.2
2019-Nov-12 14:35 318 6 gusting 14 9.2
2019-Nov-12 14:30 319 5 gusting 18 9.5
2019-Nov-12 14:25 306 6 gusting 18 9.7
2019-Nov-12 14:20 296 9 gusting 18 10.4
2019-Nov-12 14:15 311 4 gusting 10 10.9
2019-Nov-12 14:10 294 3 gusting 8 11.1
2019-Nov-12 14:05 277 3 gusting 7 11.2
2019-Nov-12 14:00 286 2 gusting 10 11.2
2019-Nov-12 13:55 276 2 gusting 10 11.2
2019-Nov-12 13:50 285 4 gusting 9 11.4
2019-Nov-12 13:45 300 5 gusting 9 11.6
2019-Nov-12 13:40 292 4 gusting 9 11.7
2019-Nov-12 13:35 299 2 gusting 13 11.8
2019-Nov-12 13:30 300 5 gusting 13 12.1
2019-Nov-12 13:25 284 5 gusting 11 12.4
2019-Nov-12 13:20 295 4 gusting 7 12.7
2019-Nov-12 13:15 294 1 gusting 5 12.8
2019-Nov-12 13:10 242 3 gusting 5 12.8
2019-Nov-12 13:05 226 2 gusting 5 12.8
2019-Nov-12 13:00 230 2 gusting 6 12.9
2019-Nov-12 12:55 221 3 gusting 6 13.1
2019-Nov-12 12:50 236 2 gusting 6 13.1
2019-Nov-12 12:45 238 3 gusting 7 13.2
2019-Nov-12 12:40 223 3 gusting 7 13.2
2019-Nov-12 12:35 253 1 gusting 9 13.6
2019-Nov-12 12:30 229 4 gusting 9 13.8
2019-Nov-12 12:25 230 4 gusting 9 13.9
2019-Nov-12 12:20 225 4 gusting 8 13.9
2019-Nov-12 12:15 228 3 gusting 9 14.1
2019-Nov-12 12:10 225 4 gusting 9 14.2
2019-Nov-12 12:05 218 2 gusting 8 14.2
2019-Nov-12 12:00 222 5 gusting 9 14.2
2019-Nov-12 11:55 222 5 gusting 9 14.2
2019-Nov-12 11:50 231 4 gusting 9 14.2
2019-Nov-12 11:45 224 3 gusting 11 14.2
2019-Nov-12 11:40 210 4 gusting 11 14.2
2019-Nov-12 11:35 223 5 gusting 10 14.2
2019-Nov-12 11:30 226 5 gusting 10 14.3
2019-Nov-12 11:25 213 4 gusting 9 14.2
2019-Nov-12 11:20 207 3 gusting 13 14.3
2019-Nov-12 11:15 213 5 gusting 13 14.2
2019-Nov-12 11:10 216 4 gusting 10 14.3
2019-Nov-12 11:05 218 4 gusting 10 14.3
2019-Nov-12 11:00 208 4 gusting 10 14.4
2019-Nov-12 10:55 221 5 gusting 10 14.4
2019-Nov-12 10:50 210 7 gusting 11 14.4
2019-Nov-12 10:45 204 6 gusting 11 14.4
2019-Nov-12 10:40 209 4 gusting 14 14.4
2019-Nov-12 10:35 224 8 gusting 16 14.6
2019-Nov-12 10:30 206 8 gusting 16 14.4
2019-Nov-12 10:25 214 5 gusting 12 14.3
2019-Nov-12 10:20 217 7 gusting 14 14.4
2019-Nov-12 10:15 215 6 gusting 14 14.3
2019-Nov-12 10:10 210 5 gusting 19 14.4
2019-Nov-12 10:05 207 6 gusting 19 14.6
2019-Nov-12 10:00 212 9 gusting 14 14.6
2019-Nov-12 09:55 212 8 gusting 14 14.6
2019-Nov-12 09:50 204 6 gusting 14 14.6
2019-Nov-12 09:45 208 9 gusting 16 14.7
2019-Nov-12 09:40 208 10 gusting 16 14.8
2019-Nov-12 09:35 213 9 gusting 20 14.8
2019-Nov-12 09:30 209 8 gusting 20 14.8
2019-Nov-12 09:25 207 7 gusting 18 14.8
2019-Nov-12 09:20 213 7 gusting 18 14.8
2019-Nov-12 09:15 207 7 gusting 15 14.9
2019-Nov-12 09:10 212 8 gusting 16 14.9
2019-Nov-12 09:05 215 7 gusting 16 14.9
2019-Nov-12 09:00 211 10 gusting 16 14.9
2019-Nov-12 08:55 214 8 gusting 17 14.9
2019-Nov-12 08:50 217 9 gusting 18 14.9
2019-Nov-12 08:45 212 7 gusting 18 14.9
2019-Nov-12 08:40 216 7 gusting 19 14.9
2019-Nov-12 08:35 213 11 gusting 19 14.9
2019-Nov-12 08:30 208 8 gusting 19 15.1
2019-Nov-12 08:25 210 8 gusting 19 14.9
2019-Nov-12 08:20 207 10 gusting 17 14.9
2019-Nov-12 08:15 210 10 gusting 16 14.9
2019-Nov-12 08:10 207 9 gusting 18 14.9
2019-Nov-12 08:05 210 9 gusting 18 14.9
2019-Nov-12 08:00 206 9 gusting 18 14.9
2019-Nov-12 07:55 208 11 gusting 21 14.9
2019-Nov-12 07:50 204 8 gusting 21 14.9
2019-Nov-12 07:45 212 8 gusting 15 14.9
2019-Nov-12 07:40 206 7 gusting 16 14.9
2019-Nov-12 07:35 207 9 gusting 16 14.9
2019-Nov-12 07:30 206 8 gusting 17 14.9
2019-Nov-12 07:25 202 8 gusting 17 15.1
2019-Nov-12 07:20 215 7 gusting 17 15.1
2019-Nov-12 07:15 209 8 gusting 16 14.9
2019-Nov-12 07:10 210 8 gusting 16 15.1
2019-Nov-12 07:05 202 6 gusting 17 14.9
2019-Nov-12 07:00 201 11 gusting 17 15.1
2019-Nov-12 06:55 206 9 gusting 17 15.1
2019-Nov-12 06:50 210 8 gusting 17 15.1
2019-Nov-12 06:45 204 7 gusting 17 15.1
2019-Nov-12 06:40 209 10 gusting 17 15.2
2019-Nov-12 06:35 205 10 gusting 15 15.2
2019-Nov-12 06:30 207 6 gusting 15 15.1
2019-Nov-12 06:25 203 8 gusting 14 15.2
2019-Nov-12 06:20 210 8 gusting 13 15.2
2019-Nov-12 06:15 201 7 gusting 14 15.2
2019-Nov-12 06:10 203 8 gusting 16 15.2
2019-Nov-12 06:05 203 8 gusting 19 15.2
2019-Nov-12 06:00 200 11 gusting 19 15.3
2019-Nov-12 05:55 203 7 gusting 13 15.2
2019-Nov-12 05:50 209 7 gusting 13 15.2
2019-Nov-12 05:45 210 7 gusting 13 15.2
2019-Nov-12 05:40 204 8 gusting 15 15.3
2019-Nov-12 05:35 203 9 gusting 15 15.4
2019-Nov-12 05:30 204 9 gusting 17 15.6
2019-Nov-12 05:25 209 7 gusting 17 15.4
2019-Nov-12 05:20 208 7 gusting 14 15.4
2019-Nov-12 05:15 210 8 gusting 15 15.3
2019-Nov-12 05:10 203 8 gusting 16 15.4
2019-Nov-12 05:05 206 8 gusting 16 15.3
2019-Nov-12 05:00 204 6 gusting 14 15.3
2019-Nov-12 04:55 208 8 gusting 14 15.3
2019-Nov-12 04:50 203 7 gusting 15 15.2
2019-Nov-12 04:45 201 8 gusting 15 15.2
2019-Nov-12 04:40 204 6 gusting 12 15.2
2019-Nov-12 04:35 202 8 gusting 15 15.2
2019-Nov-12 04:30 207 8 gusting 15 15.2
2019-Nov-12 04:25 202 7 gusting 14 15.2
2019-Nov-12 04:20 201 6 gusting 14 15.2
2019-Nov-12 04:15 196 8 gusting 13 15.2
2019-Nov-12 04:10 204 8 gusting 15 15.2
2019-Nov-12 04:05 208 7 gusting 15 15.2
2019-Nov-12 04:00 205 7 gusting 13 15.3
2019-Nov-12 03:55 199 7 gusting 15 15.3
2019-Nov-12 03:50 204 7 gusting 15 15.3
2019-Nov-12 03:45 203 8 gusting 17 15.3
2019-Nov-12 03:40 209 8 gusting 17 15.3
2019-Nov-12 03:35 201 8 gusting 14 15.4
2019-Nov-12 03:30 205 7 gusting 14 15.4
2019-Nov-12 03:25 205 9 gusting 14 15.4
2019-Nov-12 03:20 205 8 gusting 14 15.4
2019-Nov-12 03:15 201 9 gusting 15 15.6
2019-Nov-12 03:10 202 7 gusting 15 15.6
2019-Nov-12 03:05 201 6 gusting 16 15.4
2019-Nov-12 03:00 203 8 gusting 16 15.3
2019-Nov-12 02:55 196 8 gusting 14 15.2
2019-Nov-12 02:50 206 8 gusting 14 15.2
2019-Nov-12 02:45 199 5 gusting 13 14.8
2019-Nov-12 02:40 203 5 gusting 13 14.9
2019-Nov-12 02:35 197 6 gusting 13 14.8
2019-Nov-12 02:30 204 8 gusting 13 14.8
2019-Nov-12 02:25 197 6 gusting 12 14.7
2019-Nov-12 02:20 204 7 gusting 12 14.7
2019-Nov-12 02:15 204 7 gusting 10 14.6
2019-Nov-12 02:10 195 6 gusting 11 14.3
2019-Nov-12 02:05 198 6 gusting 12 14.3
2019-Nov-12 02:00 198 6 gusting 12 14.3
2019-Nov-12 01:55 201 5 gusting 9 14.2
2019-Nov-12 01:50 198 5 gusting 10 14.1
2019-Nov-12 01:45 197 6 gusting 10 14.1
2019-Nov-12 01:40 194 4 gusting 9 13.8
2019-Nov-12 01:35 201 5 gusting 9 13.8
2019-Nov-12 01:30 197 5 gusting 9 13.7
2019-Nov-12 01:25 201 5 gusting 9 13.7
2019-Nov-12 01:20 192 5 gusting 9 13.8
2019-Nov-12 01:15 190 4 gusting 8 13.8
2019-Nov-12 01:10 206 5 gusting 9 13.8
2019-Nov-12 01:05 209 4 gusting 9 13.8
2019-Nov-12 01:00 206 5 gusting 11 13.9
2019-Nov-12 00:55 203 6 gusting 11 13.9
2019-Nov-12 00:50 206 5 gusting 10 14.1
2019-Nov-12 00:45 214 5 gusting 10 14.2
2019-Nov-12 00:40 203 6 gusting 10 14.2
2019-Nov-12 00:35 188 6 gusting 12 14.3
2019-Nov-12 00:30 193 6 gusting 13 14.2
2019-Nov-12 00:25 181 8 gusting 13 14.6
2019-Nov-12 00:20 181 7 gusting 10 14.2
2019-Nov-12 00:15 188 6 gusting 11 14.1
2019-Nov-12 00:10 180 6 gusting 11 14.1
2019-Nov-12 00:05 189 5 gusting 8 13.8
2019-Nov-12 00:00 195 5 gusting 8 13.8
2019-Nov-11 23:55 179 5 gusting 8 14.2
2019-Nov-11 23:50 173 4 gusting 7 14.2
2019-Nov-11 23:45 172 3 gusting 7 14.2
2019-Nov-11 23:40 172 3 gusting 6 14.2
2019-Nov-11 23:35 174 2 gusting 6 14.6
2019-Nov-11 23:30 180 3 gusting 6 14.6
2019-Nov-11 23:25 183 2 gusting 6 14.6
2019-Nov-11 23:20 168 4 gusting 6 14.8
2019-Nov-11 23:15 176 3 gusting 10 14.9
2019-Nov-11 23:10 176 5 gusting 10 15.2
2019-Nov-11 23:05 176 5 gusting 8 15.2
2019-Nov-11 23:00 182 4 gusting 8 15.2
2019-Nov-11 22:55 188 4 gusting 8 15.1
2019-Nov-11 22:50 197 4 gusting 6 15.1
2019-Nov-11 22:45 194 3 gusting 6 15.1
2019-Nov-11 22:40 202 3 gusting 6 15.1
2019-Nov-11 22:35 201 4 gusting 6 15.2
2019-Nov-11 22:30 205 4 gusting 6 15.3
2019-Nov-11 22:25 202 3 gusting 6 15.3
2019-Nov-11 22:20 198 4 gusting 6 15.7
2019-Nov-11 22:15 202 4 gusting 7 15.8
2019-Nov-11 22:10 203 4 gusting 7 15.9
2019-Nov-11 22:05 197 4 gusting 8 16.1
2019-Nov-11 22:00 208 5 gusting 10 16.4
2019-Nov-11 21:55 198 5 gusting 11 16.6
2019-Nov-11 21:50 196 5 gusting 12 16.8
2019-Nov-11 21:45 196 6 gusting 12 16.9
2019-Nov-11 21:40 202 7 gusting 11 17.1
2019-Nov-11 21:35 199 4 gusting 10 17.2
2019-Nov-11 21:30 196 5 gusting 11 17.6
2019-Nov-11 21:25 208 6 gusting 11 17.9
2019-Nov-11 21:20 197 5 gusting 8 17.9
2019-Nov-11 21:15 206 4 gusting 8 18.1
2019-Nov-11 21:10 205 5 gusting 9 18.2
2019-Nov-11 21:05 203 4 gusting 11 18.4
2019-Nov-11 21:00 196 4 gusting 11 18.8
2019-Nov-11 20:55 182 5 gusting 10 19.1
2019-Nov-11 20:50 183 6 gusting 10 18.9
2019-Nov-11 20:45 196 5 gusting 10 19.1
2019-Nov-11 20:40 188 6 gusting 10 19.8
2019-Nov-11 20:35 193 5 gusting 11 19.9
2019-Nov-11 20:30 176 5 gusting 12 20.2
2019-Nov-11 20:25 171 5 gusting 12 20.1
2019-Nov-11 20:20 179 6 gusting 11 20.4
2019-Nov-11 20:15 192 4 gusting 7 20.4
2019-Nov-11 20:10 186 4 gusting 10 20.4
2019-Nov-11 20:05 205 6 gusting 10 20.4
2019-Nov-11 20:00 185 5 gusting 9 20.4
2019-Nov-11 19:55 191 4 gusting 8 20.6
2019-Nov-11 19:50 181 6 gusting 9 20.6
2019-Nov-11 19:45 180 5 gusting 11 20.4
2019-Nov-11 19:40 191 5 gusting 13 20.2
2019-Nov-11 19:35 171 8 gusting 13 20.2
2019-Nov-11 19:30 173 7 gusting 11 20.4
2019-Nov-11 19:25 170 7 gusting 11 20.2
2019-Nov-11 19:20 176 5 gusting 11 20.1
2019-Nov-11 19:15 180 7 gusting 12 20.1
2019-Nov-11 19:10 173 8 gusting 12 20.4
2019-Nov-11 19:05 174 6 gusting 10 20.4
2019-Nov-11 19:00 184 4 gusting 11 19.6
2019-Nov-11 18:55 206 7 gusting 11 19.9
2019-Nov-11 18:50 202 4 gusting 9 19.9
2019-Nov-11 18:45 194 2 gusting 8 20.8
2019-Nov-11 18:40 184 4 gusting 8 20.1
2019-Nov-11 18:35 184 2 gusting 8 19.9
2019-Nov-11 18:30 194 3 gusting 9 19.9
2019-Nov-11 18:25 183 3 gusting 9 19.9
2019-Nov-11 18:20 192 5 gusting 8 19.6
2019-Nov-11 18:15 187 3 gusting 8 19.9
2019-Nov-11 18:10 196 5 gusting 8 19.4
2019-Nov-11 18:05 183 3 gusting 7 19.4
2019-Nov-11 18:00 200 4 gusting 7 18.9
2019-Nov-11 17:55 195 4 gusting 6 19.4
2019-Nov-11 17:50 164 4 gusting 6 19.1
2019-Nov-11 17:45 207 4 gusting 6 18.9
2019-Nov-11 17:40 201 2 gusting 5 18.9
2019-Nov-11 17:35 200 2 gusting 5 18.4
2019-Nov-11 17:30 158 2 gusting 5 18.6
2019-Nov-11 17:25 164 2 gusting 5 18.8
2019-Nov-11 17:20 177 3 gusting 5 18.4
2019-Nov-11 17:15 181 2 gusting 5 18.2
2019-Nov-11 17:10 206 2 gusting 6 17.6
2019-Nov-11 17:05 173 2 gusting 6 18.2
2019-Nov-11 17:00 181 2 gusting 6 17.9
2019-Nov-11 16:55 190 3 gusting 6 17.6
2019-Nov-11 16:50 180 2 gusting 5 17.4
2019-Nov-11 16:45 220 3 gusting 6 16.9
2019-Nov-11 16:40 223 2 gusting 6 16.6
2019-Nov-11 16:35 217 2 gusting 6 17.1
2019-Nov-11 16:30 172 2 gusting 6 17.1
2019-Nov-11 16:25 204 2 gusting 6 16.6
2019-Nov-11 16:20 189 3 gusting 6 16.8
2019-Nov-11 16:15 169 3 gusting 6 16.8
2019-Nov-11 16:10 181 3 gusting 6 16.4
2019-Nov-11 16:05 212 2 gusting 6 16.8
2019-Nov-11 16:00 213 1 gusting 7 16.2
2019-Nov-11 15:55 179 4 gusting 7 15.8
2019-Nov-11 15:50 201 3 gusting 8 15.8
2019-Nov-11 15:45 184 4 gusting 8 15.6
2019-Nov-11 15:40 200 3 gusting 6 15.7
2019-Nov-11 15:35 220 3 gusting 6 15.2
2019-Nov-11 15:30 184 5 gusting 7 15.1
2019-Nov-11 15:25 182 4 gusting 7 15.2
2019-Nov-11 15:20 180 3 gusting 7 14.9
2019-Nov-11 15:15 178 5 gusting 7 14.7
2019-Nov-11 15:10 182 4 gusting 7 14.7
2019-Nov-11 15:05 197 3 gusting 7 14.4
2019-Nov-11 15:00 177 3 gusting 7 14.7
2019-Nov-11 14:55 194 3 gusting 6 14.2
2019-Nov-11 14:50 203 2 gusting 6 14.2
2019-Nov-11 14:45 201 3 gusting 6 13.8
2019-Nov-11 14:40 206 2 gusting 6 13.6
2019-Nov-11 14:35 207 4 gusting 6 13.6
2019-Nov-11 14:30 228 3 gusting 6 13.4
2019-Nov-11 14:25 242 2 gusting 8 13.2
2019-Nov-11 14:20 219 3 gusting 8 13.1
2019-Nov-11 14:15 224 4 gusting 9 12.8
2019-Nov-11 14:10 210 4 gusting 9 12.8
2019-Nov-11 14:05 227 3 gusting 8 12.7
2019-Nov-11 14:00 219 2 gusting 6 12.3
2019-Nov-11 13:55 200 4 gusting 8 12.2
2019-Nov-11 13:50 216 5 gusting 9 11.9
2019-Nov-11 13:45 214 4 gusting 9 11.7
2019-Nov-11 13:40 196 3 gusting 6 11.6
2019-Nov-11 13:35 207 3 gusting 7 11.2
2019-Nov-11 13:30 209 4 gusting 7 10.9
2019-Nov-11 13:25 210 2 gusting 6 10.7
2019-Nov-11 13:20 202 2 gusting 5 10.4
2019-Nov-11 13:15 198 3 gusting 6 10.0
2019-Nov-11 13:10 203 3 gusting 6 9.6
2019-Nov-11 13:05 211 3 gusting 6 9.5
2019-Nov-11 13:00 204 3 gusting 6 9.1
2019-Nov-11 12:55 196 3 gusting 6 8.8
2019-Nov-11 12:50 199 3 gusting 5 8.6
2019-Nov-11 12:45 190 1 gusting 5 8.3
2019-Nov-11 12:40 177 2 gusting 4 8.1
2019-Nov-11 12:35 163 2 gusting 3 7.6
2019-Nov-11 12:30 185 1 gusting 2 7.0
2019-Nov-11 12:25 6.7
2019-Nov-11 12:20 170 1 gusting 3 6.7
2019-Nov-11 12:15 177 1 gusting 4 7.0
2019-Nov-11 12:10 187 1 gusting 4 7.0
2019-Nov-11 12:05 170 2 gusting 3 6.7
2019-Nov-11 12:00 186 1 gusting 3 6.6